Theta_e
333 327 329 330 333 326 327 334 315 320 317 306 305 307 308 316 316 314 316 319 315 324 323 323 320 322 318 317 318 323 327 324 325 316 321 337 341 339 350 350 349 349 348 348 349 350 350 352 352 353 352 353 353 353 353 354 353 354 354 354 354 354 354 353 353 353 353 352 351 351 351 351 351 351 348 346 345 343 343 342 342 343 344 344 344 344 344 344 345 345 345 346 346 347 347 347 347
326 326 326 329 325 324 318 326 314 307 307 304 304 308 309 313 313 311 315 317 317 321 325 325 324 321 320 321 323 329 329 334 333 334 338 342 341 340 349 349 349 347 347 348 348 347 348 350 353 353 352 352 353 352 353 353 354 354 354 354 354 354 354 353 353 353 352 351 351 352 352 351 352 351 349 346 345 344 341 341 342 342 343 344 344 344 345 345 345 346 346 346 346 346 347 347 347
326 326 326 328 321 320 318 317 303 304 301 299 304 306 311 310 309 312 313 315 319 322 327 322 324 321 320 322 321 323 321 338 338 338 338 343 336 340 346 348 349 348 347 348 347 346 347 350 353 352 352 352 352 353 352 353 353 354 354 354 354 354 353 353 353 352 352 352 352 352 351 351 351 351 350 348 347 345 342 342 342 342 343 343 344 345 346 346 345 345 345 346 346 346 347 346 345
330 329 327 325 313 316 309 309 305 302 299 300 303 308 309 308 308 312 314 316 319 320 319 319 320 321 318 318 323 329 329 328 339 339 337 338 339 341 345 348 350 347 348 348 347 346 347 351 352 352 352 352 352 352 353 353 353 354 354 354 354 354 353 353 352 352 352 352 352 352 351 352 352 351 349 347 346 345 345 343 341 342 345 345 346 346 346 347 346 346 346 346 347 346 345 345 344
328 328 328 322 313 309 307 306 304 305 299 302 301 308 310 311 310 311 313 314 317 317 317 319 319 323 323 325 329 326 326 333 335 343 341 342 343 343 346 347 347 347 346 347 347 347 347 351 351 352 352 351 352 352 352 353 353 354 354 354 354 353 353 353 352 353 352 352 352 352 352 352 351 348 346 346 347 348 345 344 345 344 345 345 348 350 349 348 346 346 346 346 347 346 345 346 345
326 325 320 319 311 315 309 303 302 302 305 307 305 307 310 312 311 312 312 314 317 316 317 315 316 316 325 330 334 328 336 329 335 341 342 340 343 344 345 346 345 345 347 348 348 347 347 351 351 351 351 351 351 352 352 353 354 353 354 354 353 353 353 353 353 352 352 352 352 352 352 351 349 348 347 347 346 347 348 347 346 346 345 346 346 347 347 347 347 346 346 346 346 346 341 343 346
316 315 315 315 314 314 303 301 301 303 306 310 308 309 310 311 312 312 311 312 315 316 317 314 320 323 324 332 334 335 338 341 336 340 344 343 344 344 344 343 343 345 349 348 348 346 347 351 351 351 351 351 352 353 353 354 353 353 353 353 353 353 353 352 352 352 352 351 352 352 351 351 350 350 349 348 347 346 346 346 347 347 347 347 347 347 347 348 347 347 346 346 343 344 344 343 343
320 311 312 307 305 308 303 302 302 305 305 310 311 310 311 312 312 311 311 311 310 310 315 316 317 322 325 338 326 337 340 345 344 345 345 344 344 343 343 342 343 347 349 349 347 346 351 350 351 350 351 352 352 353 353 353 353 353 353 352 353 353 352 352 352 352 351 351 351 351 350 350 349 349 348 347 346 346 345 346 346 347 347 348 348 347 347 347 348 347 346 344 344 343 343 344 344
317 313 316 307 302 305 302 302 303 307 307 310 311 313 318 312 313 311 311 312 312 313 313 315 318 323 321 332 331 337 337 344 345 347 345 344 343 343 343 344 343 345 348 348 348 347 348 350 350 351 351 352 352 353 353 353 353 353 353 352 352 352 352 351 351 351 351 350 349 348 348 347 347 347 347 345 345 345 344 345 346 347 348 348 347 347 347 347 346 346 345 344 344 344 344 345 345
313 313 306 306 306 299 301 302 302 305 306 310 310 312 313 313 312 312 311 311 312 313 315 317 320 326 332 329 332 337 337 343 344 343 344 343 344 344 343 344 346 348 348 347 346 345 347 351 350 351 352 352 353 353 353 353 353 353 352 352 352 351 351 350 349 349 348 348 348 347 347 346 345 345 344 344 343 343 343 344 344 346 346 347 347 347 346 346 346 346 345 344 345 344 344 346 346
306 312 313 304 302 299 298 300 303 306 307 310 311 313 314 314 313 312 312 311 313 312 314 316 314 329 334 334 335 342 343 343 342 339 342 343 344 342 341 343 345 347 346 346 346 346 347 348 353 351 352 353 353 353 353 353 352 352 352 351 351 350 349 349 348 348 347 347 347 346 346 345 344 343 343 342 342 341 342 343 343 344 345 345 346 345 346 346 346 346 346 347 346 346 346 344 348
305 306 307 300 300 300 301 301 303 305 308 309 309 313 314 314 313 310 311 310 311 313 312 316 316 325 331 332 334 339 343 341 340 340 341 343 341 342 341 343 345 345 346 345 345 344 345 348 349 353 353 354 353 353 352 352 352 351 351 351 350 349 348 348 347 346 346 345 345 344 343 343 343 342 341 340 341 340 342 342 342 343 344 344 344 345 346 346 347 346 347 346 346 345 346 347 343
306 307 304 301 301 302 303 302 303 305 305 307 309 313 315 313 311 312 312 312 313 312 313 317 321 327 332 332 338 341 340 341 341 341 341 341 341 341 343 343 344 344 346 346 343 342 344 346 346 350 352 353 353 352 352 351 351 351 350 350 349 348 347 346 345 344 343 342 341 341 342 342 342 341 341 339 340 341 341 342 341 341 342 343 344 345 346 346 346 346 346 346 344 346 346 345 345
308 308 306 300 305 303 302 302 304 302 303 308 312 314 315 313 313 314 313 310 312 311 317 320 322 325 334 335 335 337 339 343 342 343 342 342 342 342 342 343 343 343 344 344 341 341 341 345 348 349 351 352 351 351 352 351 351 350 349 349 348 346 345 344 343 342 342 341 340 340 341 340 340 341 340 340 339 341 341 341 341 341 342 343 344 345 345 345 345 344 344 344 345 344 345 345 344
309 311 306 303 302 302 303 300 301 302 302 309 312 313 314 316 315 315 313 310 312 318 320 322 320 316 322 331 332 336 339 342 342 343 342 342 342 342 342 342 345 345 344 343 341 341 342 344 345 350 352 350 351 350 351 350 350 349 348 348 347 346 345 344 343 342 342 342 341 340 340 340 340 341 340 339 340 340 340 341 342 342 343 343 344 345 345 344 343 343 342 343 343 343 344 345 345
312 310 306 301 300 300 302 303 304 302 303 310 312 313 313 315 316 314 314 315 314 318 319 315 325 319 321 328 336 340 342 342 344 343 342 341 342 342 341 343 343 344 343 343 343 343 344 344 346 348 350 350 350 350 350 350 350 349 348 348 347 346 345 344 344 343 343 343 343 342 341 341 340 339 341 339 340 341 340 341 342 343 342 343 345 344 344 343 342 341 342 342 344 344 344 345 346
313 310 302 301 298 301 303 303 305 300 306 309 312 312 310 310 316 316 318 318 313 314 318 322 320 326 331 337 342 342 343 344 345 342 342 341 341 340 340 342 342 343 345 344 344 344 344 344 347 347 349 351 350 350 350 350 349 349 348 348 347 347 345 344 344 344 344 344 343 344 343 341 342 341 340 339 341 340 342 343 344 343 342 343 344 344 343 344 342 344 344 346 347 346 347 347 348
309 303 302 300 302 301 305 305 306 309 307 309 311 312 311 309 313 315 316 314 315 315 315 321 325 333 342 344 345 344 343 343 345 341 339 338 341 338 338 340 340 339 340 342 343 343 343 341 341 347 349 350 351 351 350 350 348 348 347 347 346 345 344 345 344 343 348 344 345 344 344 344 342 340 340 343 340 341 340 342 341 343 341 342 343 343 344 344 346 345 347 348 346 348 349 346 344
305 303 303 299 303 305 309 309 310 309 308 310 312 313 311 310 313 315 311 310 311 312 314 318 321 329 338 343 343 342 342 344 344 343 339 338 337 337 338 339 339 339 339 340 342 343 342 341 344 348 347 349 352 351 350 350 347 347 346 346 345 345 345 344 343 343 343 343 345 345 348 349 346 344 344 340 344 344 343 343 341 343 344 342 344 344 345 346 346 347 347 348 349 348 347 344 340
307 304 301 302 307 308 310 310 309 311 311 310 311 312 312 312 313 316 310 310 313 311 311 314 320 324 334 340 341 341 342 342 345 344 340 338 338 338 339 338 337 339 339 340 341 342 340 340 345 348 347 352 349 349 350 349 347 347 347 346 344 344 343 341 343 343 339 342 343 347 348 350 350 350 345 347 343 340 342 342 343 343 344 345 343 346 345 347 347 348 348 349 347 347 341 338 336
307 305 301 304 308 306 309 311 311 311 312 311 311 312 312 313 314 313 311 309 310 312 315 314 321 323 333 338 340 340 342 342 344 344 342 339 340 342 341 340 338 339 340 340 340 342 339 345 345 348 350 351 351 349 349 347 348 347 347 345 343 341 341 344 344 344 345 341 346 352 350 351 349 350 351 346 342 342 339 342 342 343 342 342 347 343 342 339 345 343 342 344 343 340 337 336 339
307 304 307 307 308 307 310 311 312 312 312 311 312 310 310 314 313 312 312 308 308 312 315 316 318 328 333 337 338 342 342 343 343 341 342 342 340 341 343 342 343 341 341 338 338 340 340 346 347 349 351 351 352 349 349 348 349 347 346 346 344 341 343 344 343 344 346 354 351 350 352 352 350 347 347 348 349 350 340 340 340 341 341 339 343 340 347 350 346 343 344 343 341 350 343 347 343
301 305 307 309 309 307 311 311 311 312 311 310 310 312 313 312 311 313 312 310 312 317 316 317 326 333 339 340 340 341 342 342 342 342 343 341 342 343 343 341 340 338 338 337 338 339 343 345 346 349 350 349 349 350 350 348 347 347 346 346 344 343 344 343 345 351 350 352 354 351 351 350 351 351 350 349 349 350 348 349 349 349 348 347 351 349 346 348 350 347 345 346 342 342 342 342 348
305 302 306 307 309 308 310 310 312 311 311 310 313 314 311 311 307 312 311 313 315 316 317 320 332 335 339 340 342 342 342 341 342 345 346 344 345 345 344 341 340 340 338 338 337 339 343 341 345 346 347 348 350 351 351 347 347 346 348 347 344 344 346 344 347 348 350 350 353 355 353 352 351 347 349 347 346 347 343 343 346 346 347 346 346 346 345 347 348 345 343 342 341 339 339 342 346
303 303 306 307 308 309 310 310 311 311 311 312 313 311 310 312 310 312 311 313 315 315 316 317 324 323 325 336 343 343 343 343 343 346 346 344 347 347 346 342 343 340 338 338 337 338 340 342 345 343 345 346 347 350 348 347 346 348 347 347 345 347 346 345 352 348 350 349 352 352 352 349 347 348 343 343 343 344 344 343 344 344 343 345 345 344 346 348 348 348 347 342 342 342 343 341 341
305 305 307 307 307 309 310 310 310 310 311 312 310 309 311 312 313 310 311 313 315 316 316 317 317 324 325 339 343 343 344 342 345 344 345 346 346 343 343 342 342 340 339 339 338 340 339 341 343 341 344 346 347 348 346 346 347 347 347 345 352 343 352 345 349 352 353 351 349 351 354 348 342 342 342 345 344 342 344 343 343 341 342 344 343 342 346 346 347 350 345 346 345 340 341 341 345
307 306 307 306 307 308 309 308 309 311 310 311 308 309 309 312 311 306 316 316 315 315 316 319 316 317 324 341 345 346 343 343 345 345 345 346 343 343 343 342 341 341 341 339 338 341 341 339 343 343 347 349 348 346 347 347 347 347 347 347 347 344 353 353 347 349 347 351 350 352 349 350 346 344 345 342 345 343 343 341 338 341 341 340 342 342 345 344 347 346 343 343 341 340 340 343 342
307 307 306 306 307 308 308 308 309 310 308 311 310 308 310 311 310 307 311 314 317 319 315 314 315 317 318 341 345 345 345 345 344 345 344 343 341 340 341 340 340 342 340 339 338 341 342 340 339 345 347 350 349 348 348 347 347 347 348 347 345 345 352 350 347 350 352 351 351 352 355 351 347 345 343 342 342 342 342 342 341 341 341 341 343 341 346 342 343 341 342 343 348 348 347 346 347
306 306 301 304 306 304 307 306 308 309 308 311 311 307 306 307 306 310 312 314 316 314 315 318 326 322 318 333 343 342 344 344 343 342 344 344 344 343 341 343 342 342 342 342 340 342 341 345 342 344 347 349 349 349 348 348 348 347 346 348 345 348 349 349 349 350 352 350 353 352 348 348 351 349 346 343 343 342 342 341 343 342 341 339 340 341 339 340 340 343 347 346 349 347 345 343 344
305 305 302 301 302 302 305 307 308 307 308 310 310 297 300 305 308 312 315 314 317 315 312 312 319 321 319 325 340 342 345 344 342 343 343 343 343 343 342 344 344 341 340 340 343 340 341 346 344 347 347 347 349 351 350 347 348 347 348 348 347 347 349 348 348 351 351 351 349 351 348 347 349 350 345 344 344 342 342 340 341 343 342 340 341 340 341 337 339 342 344 346 346 341 339 340 341
299 302 303 298 297 297 305 305 307 304 308 309 309 297 300 305 308 313 315 317 317 313 312 312 317 321 319 320 340 341 344 343 344 344 345 346 345 344 344 344 344 343 342 340 342 342 341 345 346 344 348 348 348 349 349 348 349 346 344 345 346 349 348 349 352 351 352 349 346 349 347 348 348 346 345 344 342 343 340 340 341 341 340 343 340 340 339 339 344 343 342 343 343 345 338 340 335
301 297 294 298 296 298 304 306 306 302 306 308 307 298 300 304 308 316 317 317 319 314 313 312 315 322 322 321 338 340 342 344 345 346 346 346 345 343 343 343 344 342 342 342 343 341 340 345 346 345 348 348 348 348 349 348 348 349 345 345 347 350 349 347 350 351 347 348 347 347 347 347 347 346 345 344 344 344 342 342 343 341 340 341 340 336 339 343 344 344 341 340 340 339 337 337 334
299 296 294 295 297 297 300 303 306 307 306 307 305 299 302 303 309 316 321 317 318 314 313 316 317 325 324 320 320 338 341 341 343 344 345 345 344 343 344 344 344 344 345 343 343 341 340 344 345 346 346 347 348 348 349 349 349 347 347 346 347 349 349 348 348 352 351 346 347 346 347 347 345 344 344 342 342 343 342 341 343 344 342 341 340 343 343 339 340 339 341 338 336 336 335 334 333
294 297 294 297 296 297 295 302 305 307 305 301 305 302 303 305 309 310 316 323 317 313 312 315 317 317 320 320 319 334 339 340 340 341 344 344 343 345 345 344 345 345 345 345 344 341 340 342 344 346 346 347 347 347 348 347 347 347 348 345 347 344 348 349 349 351 346 347 347 347 346 347 345 343 343 340 343 343 342 342 344 344 345 348 344 343 343 344 339 339 339 338 336 334 334 333 330
292 293 294 295 298 298 297 297 303 305 304 302 302 303 303 304 307 309 311 314 316 313 312 312 313 316 319 320 322 335 336 338 339 341 343 343 345 346 345 345 345 345 344 345 343 341 341 343 344 346 345 347 347 348 348 348 348 348 347 346 345 346 348 349 350 350 346 347 347 345 344 347 345 343 340 341 339 343 341 344 343 343 345 348 343 338 340 339 340 338 338 336 337 334 332 336 333
295 296 295 296 294 296 297 300 305 304 301 300 301 300 302 303 305 308 310 313 310 310 313 313 313 315 318 320 323 332 333 338 341 342 342 342 343 344 343 344 344 344 343 343 342 341 341 343 344 345 345 346 346 347 346 344 343 342 340 342 342 342 344 345 349 347 348 346 345 344 342 344 344 343 341 339 340 340 339 342 343 341 340 341 337 336 334 336 335 334 333 333 336 331 336 335 328
298 297 296 295 296 298 301 301 305 305 301 300 302 302 302 303 304 307 309 310 312 311 310 313 315 317 318 319 323 329 334 336 340 341 342 342 342 343 343 343 344 343 343 342 341 341 342 341 342 342 345 345 344 343 343 341 339 340 340 339 340 343 341 343 344 347 345 345 345 343 343 345 345 343 340 339 338 338 338 340 341 340 340 336 338 337 333 334 335 335 335 333 331 331 332 332 326
297 297 296 295 296 294 299 300 304 305 301 299 301 301 301 302 304 306 308 308 307 308 311 313 315 317 320 320 328 329 331 338 339 340 342 343 342 343 342 342 342 340 340 341 340 340 342 342 342 343 344 344 344 344 343 343 342 340 339 338 339 340 339 339 341 343 344 344 344 344 343 343 344 342 341 340 340 339 340 340 339 337 336 339 341 338 337 335 334 332 335 331 334 336 330 332 328
296 295 296 295 295 298 300 302 304 305 302 299 302 300 300 303 304 306 307 308 308 310 313 314 315 315 318 321 329 328 330 334 336 337 341 341 343 343 342 341 342 342 341 340 341 341 342 342 342 343 343 343 343 343 342 341 344 344 342 341 340 338 341 343 343 342 343 341 343 342 342 343 340 337 338 338 337 337 337 336 336 336 336 336 334 335 333 335 332 335 332 329 325 328 330 331 333
294 294 293 293 297 295 293 299 301 302 302 299 301 300 301 304 306 305 307 307 309 313 313 315 317 315 316 318 328 327 331 333 335 336 337 340 341 341 341 340 341 342 340 340 341 341 341 341 342 343 343 343 343 343 342 344 344 345 345 344 344 341 339 340 340 340 339 338 337 338 338 338 337 337 337 336 335 336 338 338 337 335 335 335 333 335 332 331 332 334 335 331 327 322 323 324 328
294 295 294 294 296 296 296 297 300 301 302 303 301 299 298 301 301 303 306 308 308 309 314 314 317 318 318 319 319 327 330 335 335 336 337 338 338 339 339 340 341 340 340 340 342 342 341 341 343 343 342 343 342 342 343 344 343 343 343 344 341 339 340 338 336 335 336 337 336 336 335 336 336 338 340 336 333 334 332 334 334 331 332 334 335 332 330 331 334 332 331 333 326 327 320 322 323
292 295 296 296 297 298 298 299 299 296 295 299 299 292 293 299 301 302 304 305 306 308 312 312 314 317 316 317 316 324 331 332 334 335 336 337 337 338 339 339 339 339 339 341 342 343 342 342 343 343 342 342 341 343 342 342 339 340 338 335 333 333 332 333 332 331 333 332 332 336 334 335 335 338 340 335 332 332 332 332 333 329 330 333 337 330 332 333 331 329 328 328 327 323 319 317 315
291 292 298 298 298 298 298 298 297 292 290 297 301 291 289 298 299 302 304 304 304 308 311 310 310 313 316 316 315 319 331 333 335 337 335 337 337 337 338 337 338 338 340 342 342 342 343 342 342 343 342 341 341 341 342 341 339 339 338 336 335 334 332 333 336 336 334 333 335 334 334 336 333 335 338 336 331 335 332 332 333 331 328 330 330 330 329 329 325 324 325 325 324 327 326 313 314
291 298 299 299 297 296 297 298 297 295 300 300 299 297 292 292 297 302 304 303 303 304 307 312 308 312 315 316 316 318 333 333 335 335 335 335 337 336 336 337 338 338 340 341 342 342 342 341 342 341 341 340 340 340 340 341 339 339 338 337 336 335 333 334 335 334 335 335 333 331 331 334 334 336 335 334 331 330 330 330 330 330 328 326 327 327 325 324 323 322 324 324 323 321 322 320 315
294 299 299 297 297 297 298 297 296 297 296 292 296 298 292 292 297 303 303 300 301 302 304 306 311 315 316 316 317 317 324 332 335 335 333 334 336 336 337 337 338 340 339 339 341 339 340 343 342 341 340 340 340 340 340 340 341 340 338 337 336 336 336 335 335 334 333 334 332 331 330 329 333 336 331 333 329 327 332 328 328 327 327 324 322 323 321 320 320 320 320 320 319 319 319 320 317
297 299 301 300 299 298 298 296 296 295 293 289 294 297 290 291 297 298 302 300 300 302 304 306 308 309 316 317 318 319 318 331 332 334 335 335 336 337 338 338 339 339 339 340 340 339 338 342 341 340 340 340 341 340 340 340 341 340 338 337 336 336 335 334 333 330 331 332 330 330 331 332 329 333 334 328 333 326 326 327 324 323 325 320 319 318 318 318 318 317 318 319 318 317 317 316 316
301 299 298 297 297 297 297 297 296 294 287 290 296 297 295 289 295 297 297 299 302 303 304 306 308 309 311 317 318 318 318 331 333 333 334 335 337 337 338 337 338 339 340 340 340 338 336 340 341 339 340 340 341 340 340 340 340 339 338 338 337 335 334 332 330 328 329 329 327 328 331 331 330 330 331 329 328 326 326 325 323 320 322 324 319 315 317 315 316 317 317 317 317 316 315 315 314
298 296 295 295 293 296 294 293 295 287 286 292 296 297 296 288 293 298 302 303 303 304 304 305 306 307 308 312 316 317 318 327 334 333 332 333 335 336 337 336 337 338 339 339 339 337 335 339 341 339 339 340 341 340 340 340 339 339 339 339 337 335 333 331 329 327 327 327 327 327 329 329 329 329 328 330 328 328 325 325 324 322 321 320 317 317 317 315 315 315 316 316 316 317 316 315 314
295 295 294 287 286 288 284 289 284 285 285 293 296 297 293 292 296 300 302 302 303 305 305 306 307 307 309 310 314 319 319 327 332 332 332 333 333 334 335 336 336 337 337 338 339 337 335 337 340 338 337 339 340 340 340 339 339 339 339 339 337 335 333 331 330 329 329 328 327 327 327 326 327 326 327 325 328 330 324 323 324 321 320 319 317 316 316 316 316 315 314 314 314 314 314 314 311
294 292 290 287 283 282 280 284 287 288 291 296 296 298 292 296 298 302 302 304 306 306 308 309 309 309 310 310 314 319 321 326 331 332 332 332 333 334 335 335 335 337 337 338 338 336 334 336 339 338 337 338 339 339 339 339 339 339 340 338 337 335 333 332 331 330 330 329 328 327 327 326 325 326 326 324 324 324 322 324 322 320 318 318 317 317 316 314 314 311 312 312 312 314 314 313 312
293 296 293 290 288 285 280 284 281 284 288 293 297 292 289 290 294 304 304 306 307 307 307 310 311 312 313 312 313 318 320 325 331 331 332 332 333 334 334 335 335 337 337 337 337 335 334 335 338 337 337 338 339 339 339 338 338 340 338 338 337 335 333 332 331 331 330 329 329 328 328 328 326 325 324 326 324 325 323 321 319 319 318 317 316 315 314 314 314 312 312 312 313 313 313 312 311
295 296 295 290 289 294 286 289 288 288 288 288 291 291 296 295 303 305 307 306 306 308 307 309 310 311 312 314 314 317 320 323 326 329 330 332 334 334 334 334 336 336 336 337 336 336 334 335 336 337 337 338 339 339 338 338 338 338 338 338 336 335 334 333 332 331 331 330 329 328 328 328 327 326 327 324 324 325 321 319 318 316 316 315 315 314 313 313 313 312 311 310 309 312 310 310 310
293 294 288 292 299 295 290 290 294 293 289 286 293 293 296 302 302 304 305 304 305 306 307 307 309 312 314 314 315 318 319 328 329 329 330 331 333 334 334 334 335 335 335 335 336 337 336 336 336 336 338 338 339 339 338 338 338 338 338 337 336 336 334 332 331 331 330 330 330 329 328 328 327 327 327 324 323 322 321 318 316 315 316 315 315 314 312 312 312 311 310 311 310 311 311 309 310
294 288 292 299 301 298 292 285 288 287 284 285 292 289 291 292 290 302 302 303 305 305 306 308 312 313 314 316 317 318 319 327 328 331 332 332 333 333 333 335 336 336 335 335 336 338 338 338 337 337 337 336 338 338 338 338 338 337 337 336 337 336 334 333 332 331 331 330 329 329 329 327 326 326 326 322 322 320 319 318 315 315 315 314 313 312 311 312 312 311 310 310 310 310 310 311 311
294 293 300 292 286 285 291 288 283 283 282 285 289 291 292 293 293 298 299 301 304 305 307 308 310 313 314 317 318 319 320 325 325 331 331 332 333 332 333 334 336 336 336 337 336 337 338 338 338 338 337 337 338 338 338 338 338 337 337 336 336 335 334 333 332 331 330 329 328 328 326 326 327 326 323 321 320 318 318 316 316 314 314 313 312 312 312 311 311 310 310 309 311 310 308 307 308
299 299 296 298 294 290 288 288 291 289 284 285 286 290 288 296 297 301 301 302 305 306 306 308 310 312 316 316 318 318 319 320 326 332 332 332 333 332 332 333 335 335 335 336 337 337 337 337 337 337 338 338 338 337 338 337 338 338 336 336 335 335 334 332 332 330 328 327 328 326 324 324 325 326 322 320 318 317 317 315 315 313 313 312 311 312 311 311 311 310 310 310 309 308 307 307 307
291 292 291 293 293 297 295 295 290 288 286 286 285 285 291 297 302 303 304 305 306 307 308 309 311 312 317 318 319 319 319 320 326 332 333 333 333 333 333 334 335 337 337 336 336 336 337 337 337 337 336 337 337 337 338 337 337 337 336 334 334 333 332 332 331 329 328 328 326 324 323 323 322 324 321 319 318 317 315 315 313 312 311 311 310 311 311 311 310 310 310 309 308 308 306 307 307
293 292 290 292 290 288 285 285 295 292 288 286 286 285 294 301 305 305 305 308 308 308 309 309 311 312 316 318 319 319 322 324 328 332 334 333 333 333 333 334 334 335 335 335 336 336 336 336 336 336 336 336 336 337 336 337 337 336 335 334 333 333 331 331 330 328 327 326 323 323 323 322 321 322 319 317 317 316 315 314 312 311 311 310 310 310 310 311 310 309 308 311 309 307 305 305 307
Wind_Speed
14 12 9 7 8 6 7 8 5 5 5 9 6 11 6 15 14 17 12 8 8 6 5 3 4 6 8 10 13 14 14 11 9 3 4 5 4 9 18 19 19 18 18 15 14 13 14 15 16 15 17 16 16 15 14 13 13 12 12 12 11 11 10 11 12 12 10 10 9 10 10 9 9 9 10 11 10 9 8 8 7 11 12 11 12 14 13 13 14 13 13 12 11 11 9 9 8
12 11 11 8 8 6 6 9 5 7 8 9 9 2 6 9 6 9 12 13 6 4 10 10 8 6 5 9 12 14 15 13 10 7 7 8 10 8 19 18 17 19 16 14 13 13 13 14 16 15 16 17 16 16 14 13 13 13 12 12 12 11 10 10 11 11 10 10 10 10 9 9 9 9 8 11 10 9 8 7 6 10 12 13 12 13 14 14 14 13 12 11 10 9 8 7 7
12 9 11 7 7 9 7 7 10 9 9 10 7 6 5 8 12 10 7 4 4 5 14 6 6 3 7 8 12 8 7 11 13 11 7 11 11 7 16 17 17 18 17 13 13 13 12 13 16 16 17 16 15 15 15 13 13 13 13 13 12 12 10 11 11 11 10 10 10 10 10 10 10 9 8 10 11 10 9 8 6 7 11 11 12 13 13 13 13 12 11 10 9 8 6 6 5
10 8 7 8 7 7 9 7 9 10 11 11 5 8 6 3 11 12 10 8 7 7 3 8 3 2 9 11 12 12 10 8 9 11 8 9 7 11 13 17 17 14 14 12 13 12 11 14 16 15 15 16 15 15 15 13 13 13 13 13 13 11 11 11 11 10 10 10 10 10 10 10 10 10 10 10 10 9 8 9 7 8 10 11 11 12 12 11 11 11 10 9 8 6 5 5 4
9 8 7 6 6 5 7 7 10 9 11 6 5 6 8 7 6 14 11 3 2 11 2 7 8 9 13 13 6 6 7 12 10 6 8 9 12 12 15 16 14 14 14 15 13 13 13 17 15 15 14 16 15 15 14 14 13 13 13 13 13 13 11 11 12 11 10 9 10 10 11 11 11 11 10 10 9 8 7 8 10 9 8 9 8 7 8 8 9 8 8 8 7 5 4 3 4
11 10 8 5 4 6 7 8 8 10 10 2 3 6 8 7 3 11 9 9 8 8 2 11 7 8 8 11 9 6 6 5 4 7 10 11 15 15 16 13 13 13 15 15 13 12 12 17 15 14 13 15 15 14 14 14 13 13 12 13 13 13 12 12 11 11 10 9 10 11 11 10 11 11 11 10 9 8 8 8 9 9 9 8 8 8 9 8 8 6 6 5 5 4 3 3 3
7 8 5 6 7 6 8 10 11 12 10 3 5 11 16 5 7 2 4 6 9 8 6 3 10 12 10 8 12 10 8 3 9 8 9 13 15 15 14 13 13 15 16 14 12 12 16 14 14 14 13 14 14 14 14 14 13 12 12 13 13 13 12 12 11 11 10 10 10 11 12 11 11 11 11 10 9 8 7 8 9 9 8 8 8 8 8 8 7 6 4 4 3 2 2 1 3
7 5 3 6 8 7 11 11 12 10 1 7 4 11 2 5 3 6 10 8 7 9 3 1 10 11 14 11 7 5 11 12 14 15 15 13 15 14 14 13 13 17 16 13 12 11 15 15 13 13 14 13 13 14 14 14 13 13 12 12 13 12 12 12 12 12 11 11 12 11 11 11 10 10 9 9 9 9 7 8 8 8 8 8 8 7 7 7 7 6 4 2 2 2 2 3 3
8 8 3 7 10 8 10 10 12 10 11 5 10 12 5 13 5 12 3 3 2 7 4 8 14 15 1 14 9 5 8 9 13 15 15 15 14 14 11 13 13 15 16 14 12 12 12 14 13 13 13 13 13 14 13 14 13 13 13 12 12 13 12 12 12 11 11 11 10 9 9 8 8 8 9 8 8 9 8 8 8 8 8 7 7 7 6 6 5 5 3 2 1 2 3 3 4
7 4 5 6 7 12 12 12 12 9 8 11 9 12 4 6 8 8 12 4 2 4 8 5 11 17 14 14 10 8 9 11 13 14 14 14 13 13 13 14 17 19 15 14 12 11 9 14 12 11 12 13 13 14 14 13 13 13 13 13 13 13 13 12 11 11 11 10 10 9 8 8 7 8 7 7 7 8 8 7 8 8 8 8 8 7 6 4 4 3 3 3 2 2 1 3 4
5 5 4 10 13 11 13 11 12 10 12 8 13 17 18 9 13 11 8 1 8 6 7 8 11 14 12 11 7 6 12 14 14 15 14 13 13 13 12 13 14 15 15 16 13 11 11 10 14 12 12 10 11 12 13 13 13 14 14 13 13 14 13 12 12 11 10 10 9 9 8 7 8 7 7 7 7 7 7 7 7 6 6 8 7 7 5 5 4 3 3 2 3 3 2 3 4
6 7 5 10 13 11 12 14 14 11 13 12 11 15 10 10 6 7 11 10 9 7 3 5 8 9 13 9 5 7 10 13 13 13 13 13 12 13 12 11 14 13 16 15 14 11 11 11 10 13 11 11 11 14 13 14 14 14 14 14 13 13 13 12 11 10 10 9 9 8 7 7 7 7 6 7 7 8 8 7 6 6 6 6 6 5 5 5 4 3 3 3 4 3 4 3 3
9 5 10 9 10 13 15 15 10 14 15 15 17 13 11 11 9 10 11 13 7 3 5 9 13 14 7 7 7 8 11 12 12 12 13 11 13 11 11 12 14 14 15 15 14 13 12 11 11 10 12 14 12 14 15 15 15 15 14 14 13 13 12 11 11 9 9 9 8 8 7 7 7 7 7 7 7 8 8 7 6 6 6 5 6 5 5 4 3 3 4 4 4 4 5 5 5
9 8 8 12 11 12 12 12 13 15 14 13 13 11 14 13 10 14 9 15 9 7 8 3 12 12 11 9 7 8 10 11 12 11 11 12 12 12 13 12 14 15 15 15 14 14 12 10 9 10 11 11 11 13 15 15 15 14 14 13 13 12 12 12 10 10 10 9 8 8 7 7 8 8 8 8 7 7 7 7 6 5 5 5 5 5 4 4 3 4 4 5 5 5 6 6 6
11 8 9 10 12 12 13 13 14 16 16 16 13 14 13 12 16 14 12 15 10 9 8 1 10 4 4 6 7 10 12 15 13 11 13 14 13 12 13 10 10 15 14 15 14 13 12 10 11 11 11 11 11 10 9 13 15 15 14 13 13 13 12 12 11 10 10 9 9 9 8 8 8 8 8 8 7 7 7 7 6 4 4 5 4 4 4 5 5 4 5 5 6 7 7 8 8
10 9 7 9 13 15 11 15 16 16 15 18 14 18 20 13 14 15 11 13 7 5 5 3 11 8 7 8 10 15 16 14 12 13 12 12 14 12 10 9 14 12 12 12 12 10 10 9 10 10 10 11 10 10 10 11 14 14 14 14 13 12 12 12 11 10 10 10 10 10 10 8 8 7 9 7 8 7 7 6 6 5 5 5 5 4 5 4 5 5 5 7 7 9 9 10 11
9 9 12 11 16 17 14 14 15 14 15 16 14 17 17 15 12 11 12 3 10 7 5 10 11 9 11 11 18 18 16 14 11 14 12 10 8 8 7 5 9 10 6 9 9 9 11 10 11 10 10 11 11 11 10 10 10 13 12 14 14 13 12 12 12 11 10 9 10 10 10 7 6 4 6 6 8 6 7 6 9 6 6 6 6 6 6 6 6 7 7 8 10 10 10 11 11
10 12 13 16 14 19 16 19 15 13 15 17 18 17 19 19 15 11 10 14 8 14 12 9 12 14 17 15 16 17 17 15 11 12 12 10 5 8 7 9 9 9 8 8 8 9 8 9 12 10 9 11 10 9 9 8 9 10 9 9 9 10 11 11 9 7 9 6 10 7 6 6 6 6 6 8 6 6 8 8 9 8 7 7 7 7 8 8 8 9 10 11 11 11 10 5 4
13 13 16 17 16 15 18 17 16 14 14 14 14 17 20 23 20 10 13 16 15 14 13 7 14 14 15 17 16 16 16 12 12 10 15 13 10 10 8 7 9 9 8 8 7 7 8 7 8 10 11 11 11 9 8 8 11 8 9 9 7 9 9 10 7 8 7 7 7 7 6 6 7 7 6 7 7 9 7 9 8 8 8 8 9 9 9 10 11 11 12 12 11 9 5 4 4
16 14 17 17 17 18 21 22 21 18 15 14 19 15 19 21 18 12 15 12 11 11 9 7 13 17 16 15 16 16 15 14 9 10 14 14 11 10 8 9 10 9 9 9 8 6 9 8 9 10 12 11 10 7 7 8 7 8 7 7 6 5 7 7 8 7 7 7 8 7 6 4 4 4 9 11 9 5 5 8 8 8 9 9 10 8 10 11 11 10 10 10 6 5 4 4 5
13 16 16 16 18 18 19 22 22 24 18 17 16 14 18 19 14 13 16 13 15 13 14 17 15 17 21 18 17 15 14 13 10 10 11 14 12 8 8 8 9 9 7 8 7 7 10 8 8 9 10 9 8 7 8 8 7 7 7 6 6 6 6 7 6 7 6 7 4 3 3 2 3 2 2 3 3 4 2 3 3 4 4 5 9 5 4 6 5 5 5 6 4 5 5 5 4
13 19 21 21 20 20 20 19 21 19 16 18 15 14 15 13 16 18 18 13 9 12 11 10 11 18 18 18 16 14 14 13 12 11 11 13 13 12 8 9 10 9 9 9 9 8 8 9 8 9 10 8 7 6 7 8 8 6 6 7 7 6 8 6 5 6 5 2 3 3 2 2 2 4 3 2 2 1 3 3 3 3 4 4 5 4 3 2 2 2 2 2 2 2 3 2 2
17 20 22 23 23 21 16 19 19 18 17 18 17 16 17 17 14 15 17 18 14 14 6 5 15 19 14 13 14 13 14 15 14 13 10 15 14 11 11 9 10 10 9 10 9 8 6 8 10 10 9 8 9 7 5 6 7 5 6 5 5 7 6 5 4 2 2 2 1 3 3 3 3 3 2 3 1 1 1 4 3 3 4 3 4 1 3 1 1 0 3 2 4 4 4 6 0
21 18 21 22 21 25 23 22 19 17 18 20 17 16 20 15 19 15 17 14 14 12 13 8 28 20 19 16 15 16 16 15 15 12 10 14 12 12 11 12 10 10 10 10 9 7 6 9 10 11 10 9 8 8 7 7 6 5 4 6 7 6 4 4 3 4 3 4 2 2 3 3 5 4 3 5 3 1 4 6 4 4 3 3 2 4 4 2 1 0 1 2 4 4 7 4 1
23 23 22 20 22 22 23 22 21 23 19 19 22 21 22 18 16 16 19 18 15 17 17 15 16 19 19 18 15 14 14 14 13 11 9 13 8 11 10 9 8 9 10 10 10 10 10 8 11 12 11 9 8 7 6 5 5 4 4 3 5 5 3 4 2 4 2 4 3 2 4 4 5 2 4 2 2 1 5 2 1 3 4 5 4 5 3 4 1 2 2 3 3 4 2 3 5
23 25 23 21 20 21 21 21 24 27 17 18 23 23 22 20 19 22 20 19 16 16 17 16 14 16 16 21 17 15 14 14 13 11 9 10 10 12 11 10 7 7 11 9 7 10 9 10 13 13 12 9 7 7 6 5 5 4 4 5 3 4 2 5 4 2 2 3 4 3 5 8 4 2 1 3 3 1 3 4 3 1 2 4 4 5 2 5 3 1 4 5 5 1 5 6 4
20 26 24 25 24 21 19 22 22 23 20 20 22 23 23 20 18 15 14 15 15 14 11 10 14 12 12 12 14 12 14 14 13 10 10 7 11 10 9 10 8 8 10 11 10 10 8 10 12 11 10 7 7 6 5 5 5 4 4 4 3 3 2 2 4 3 4 3 3 3 5 5 6 4 4 4 1 1 3 4 2 2 2 2 6 7 5 5 3 3 4 5 6 7 5 5 1
25 24 24 26 26 24 21 23 24 19 19 26 25 23 22 23 20 19 15 15 16 9 8 17 13 8 10 20 15 12 12 11 11 11 11 13 10 10 10 9 10 8 11 11 8 9 8 9 9 10 10 7 7 6 5 5 5 5 4 4 5 3 2 2 3 2 2 3 3 3 3 6 7 7 5 6 4 3 2 3 4 1 0 3 3 4 6 5 6 5 6 2 1 1 0 1 1
22 26 25 24 27 23 24 25 24 22 19 25 25 25 24 21 23 23 20 20 12 17 10 10 2 6 11 15 13 14 13 13 12 12 10 10 9 9 12 8 9 7 6 9 11 10 11 7 8 9 10 6 6 5 5 6 5 5 4 3 4 4 3 2 2 2 2 3 3 2 6 4 3 6 5 5 6 3 3 3 3 3 1 2 1 2 4 5 7 9 3 1 2 2 2 2 1
22 22 20 24 23 25 27 26 27 25 20 25 22 19 18 23 24 21 15 16 13 11 15 16 4 6 7 8 11 11 9 12 12 12 11 10 10 11 12 10 9 8 7 7 11 13 11 4 6 5 10 8 6 4 5 5 5 4 3 3 4 4 3 3 3 3 2 3 4 2 7 4 3 4 5 5 5 4 3 2 2 2 2 3 1 3 3 6 11 6 1 1 1 2 2 3 3
20 21 19 16 19 19 25 22 27 28 21 25 22 19 19 22 25 20 12 14 12 13 14 12 7 8 11 8 14 13 11 12 12 12 11 8 10 11 12 11 10 10 6 8 10 10 12 6 6 5 8 8 6 5 5 5 4 4 4 3 4 3 3 2 2 2 2 3 4 5 7 4 3 5 5 4 4 3 3 3 2 2 1 1 2 3 6 11 1 1 2 2 2 1 2 0 4
14 15 18 16 20 20 27 22 28 28 22 27 26 21 20 22 26 14 16 12 10 14 12 16 12 8 7 7 13 13 12 12 12 12 11 9 11 11 12 12 11 11 9 8 10 10 11 6 7 7 7 8 6 6 5 5 5 4 4 3 4 3 2 2 3 2 3 3 4 5 6 4 3 4 4 4 3 2 3 2 0 1 1 1 1 2 8 2 1 3 3 2 3 3 2 2 5
13 17 16 21 19 19 18 26 27 37 23 23 28 19 18 19 20 10 10 15 13 14 12 11 10 7 8 9 9 11 13 13 12 12 12 10 10 10 11 11 10 10 8 8 10 11 10 8 9 9 9 9 7 7 6 6 5 4 4 4 4 3 2 3 3 2 1 5 5 5 4 4 4 3 4 4 1 3 2 1 2 3 4 2 3 3 1 3 2 3 2 4 3 3 6 5 6
16 16 18 22 27 22 21 21 32 29 27 21 26 26 20 16 19 16 7 8 14 16 16 13 13 14 13 11 11 10 13 13 13 12 13 11 10 11 10 9 10 9 8 8 8 11 11 9 8 9 8 8 7 7 6 6 5 4 2 4 3 4 2 2 3 2 4 4 5 4 4 4 5 2 3 3 3 3 1 2 3 2 2 2 3 3 1 1 1 1 2 3 1 3 3 3 7
17 18 18 20 23 28 23 20 22 22 21 30 28 32 24 21 22 17 19 14 12 17 15 16 14 14 12 10 9 12 12 13 12 12 13 12 10 10 10 10 10 9 7 8 10 9 9 9 8 9 10 9 8 7 6 5 5 3 3 4 4 3 2 1 2 2 4 5 3 6 5 4 5 4 3 4 4 3 0 3 4 4 1 0 1 5 2 2 2 1 2 1 1 1 2 2 4
23 23 19 20 23 23 21 21 19 17 19 25 34 27 20 22 24 22 17 17 25 21 17 16 15 15 14 12 11 12 12 12 10 11 12 11 10 10 11 9 9 9 8 8 11 11 9 11 9 9 10 9 7 7 6 5 4 5 4 4 4 3 3 2 2 3 3 4 5 5 5 2 5 5 5 2 2 3 2 3 1 3 2 2 2 3 3 1 3 1 4 2 0 1 1 3 8
23 23 24 24 21 19 17 25 20 19 24 22 20 23 24 24 26 24 21 15 13 18 17 14 13 11 13 12 11 10 14 12 10 12 14 13 11 13 11 10 9 10 9 10 11 11 10 12 11 11 9 9 8 8 7 6 6 6 5 5 5 4 4 3 4 2 3 3 6 4 5 3 2 7 11 9 4 5 5 3 2 1 2 3 1 1 4 4 2 3 2 1 3 3 0 4 7
25 19 21 19 22 20 23 28 25 22 21 14 23 25 28 28 26 27 22 21 21 19 12 16 15 12 9 11 13 15 12 9 12 11 12 12 12 12 11 10 11 12 10 12 12 12 11 12 12 10 10 9 9 9 8 6 6 5 5 5 4 4 4 4 4 3 4 4 5 4 5 4 3 5 5 5 5 4 2 2 2 2 2 1 1 2 2 3 2 3 2 1 2 1 2 3 5
24 20 17 20 20 19 18 20 22 23 23 21 25 27 26 30 26 23 19 20 19 18 11 12 13 13 11 10 14 13 14 14 15 15 14 13 13 14 11 10 10 12 11 12 12 12 12 12 11 10 10 9 9 9 8 7 5 5 5 5 5 5 4 3 3 4 5 5 3 4 4 4 4 4 5 4 5 4 3 2 1 0 1 0 3 4 3 3 2 1 2 3 1 3 2 1 1
19 19 18 17 17 17 16 23 28 27 19 19 26 29 20 20 22 23 24 24 21 17 19 15 13 14 14 13 14 15 17 18 18 17 16 15 15 15 13 12 11 11 12 11 12 14 12 10 11 10 11 9 9 8 8 7 6 5 5 4 3 3 5 6 6 6 5 6 5 4 5 4 4 5 3 5 3 3 2 2 2 3 2 1 3 3 2 2 1 1 1 3 3 2 1 3 4
21 22 20 18 20 22 19 13 20 23 26 28 26 22 20 17 19 20 21 24 23 22 24 22 18 16 18 17 14 18 19 19 18 18 17 15 16 15 14 13 11 12 12 13 13 12 10 11 11 12 11 10 9 8 7 8 7 5 5 4 8 8 5 6 4 5 3 4 5 4 4 3 3 2 1 4 4 3 3 2 0 3 3 1 1 1 2 1 1 2 1 1 4 1 4 2 3
19 26 24 21 23 24 23 22 20 17 20 24 25 17 22 19 27 23 19 17 19 20 24 23 22 21 20 19 17 18 19 22 22 22 21 20 19 17 15 13 13 12 13 12 13 11 10 10 12 12 10 9 10 9 9 7 7 6 6 7 8 7 7 6 6 7 6 5 5 4 5 3 3 2 1 3 5 3 3 1 2 3 2 2 1 3 0 1 2 2 1 1 1 4 5 3 2
17 17 22 24 26 24 22 25 23 17 18 20 25 24 14 16 21 17 17 18 20 17 22 26 25 22 22 19 18 13 20 18 19 19 20 19 19 19 17 16 15 14 12 12 11 11 11 12 12 12 10 9 10 10 10 8 8 7 7 8 8 8 7 6 5 5 6 5 5 4 4 3 3 2 1 2 5 1 3 2 1 2 3 2 2 2 2 2 4 4 4 3 3 2 2 4 3
18 17 22 26 27 27 25 24 21 17 17 20 26 21 18 15 14 19 24 18 19 20 19 19 22 23 21 20 16 15 18 21 18 20 21 21 20 21 22 18 14 14 12 13 11 11 12 12 13 12 10 9 9 9 10 9 9 8 9 9 8 7 7 6 7 6 5 5 6 6 4 2 2 2 2 1 4 2 4 2 2 2 2 4 3 2 3 3 4 3 3 4 5 6 4 3 4
15 19 22 24 28 27 25 20 18 16 18 17 18 26 20 15 12 16 18 20 25 23 23 22 22 22 22 19 18 17 19 22 22 19 21 21 22 21 20 18 16 15 12 14 12 12 10 9 11 11 11 10 9 11 10 11 9 10 9 8 8 6 7 6 6 6 6 5 6 6 4 5 3 2 3 1 4 4 1 2 2 2 2 3 5 4 4 5 4 3 4 5 5 6 6 5 4
19 21 22 18 18 24 27 21 22 16 15 18 20 22 17 18 16 14 16 20 22 21 25 24 21 23 20 22 19 18 16 21 21 22 21 20 21 21 20 19 17 16 13 15 14 11 9 8 11 12 12 10 10 13 11 13 11 10 9 8 9 7 7 7 6 7 6 5 6 5 5 4 4 3 1 4 2 5 4 2 3 3 3 5 5 4 4 4 4 4 4 4 4 5 5 6 5
17 20 19 19 20 21 19 14 14 16 15 17 24 27 23 14 13 15 13 12 16 18 18 16 18 20 18 15 18 16 15 16 19 20 20 19 18 18 19 19 19 16 13 15 14 12 12 10 12 13 12 10 11 13 12 13 11 10 8 8 9 10 10 9 8 7 6 6 6 4 3 3 4 3 2 3 3 5 4 4 4 3 2 2 4 4 3 4 4 4 5 5 5 5 5 5 5
21 15 17 15 16 17 16 15 15 13 13 19 25 24 21 16 10 13 15 23 23 18 17 18 20 20 18 13 15 17 16 17 19 17 17 20 19 19 18 18 18 19 17 16 14 12 14 13 13 15 13 12 12 13 12 12 10 10 8 9 10 11 11 9 9 10 9 9 7 6 4 4 4 4 4 1 2 4 5 3 3 3 3 3 4 3 3 3 3 4 4 4 4 4 4 5 4
20 19 18 15 9 10 12 16 17 14 14 16 23 24 19 20 11 15 24 25 26 23 16 17 18 19 16 17 17 15 15 17 17 17 18 18 17 18 19 18 18 17 19 18 16 13 15 14 15 15 15 13 12 13 13 12 11 10 9 9 10 11 10 10 10 9 9 8 7 6 5 5 5 4 4 4 1 1 4 3 2 4 4 4 4 4 3 4 4 4 4 5 6 6 6 6 6
20 19 15 14 13 10 10 14 10 12 15 20 22 24 20 14 17 23 18 20 23 25 20 17 19 17 17 18 18 17 17 19 15 14 15 18 17 17 19 19 19 17 17 16 15 14 14 13 15 16 16 13 12 13 13 12 11 10 11 10 10 10 10 10 9 9 8 7 7 7 6 5 5 4 4 4 5 3 5 2 3 4 3 3 3 3 3 4 4 4 4 5 5 4 5 6 6
18 18 18 13 12 10 11 14 15 13 13 20 22 18 13 21 10 14 24 21 18 20 21 16 17 18 15 17 19 21 20 18 18 17 16 18 18 18 17 17 17 16 18 16 14 14 15 14 15 17 16 15 14 14 13 14 11 10 11 10 10 9 9 9 8 8 8 8 7 7 5 5 5 5 4 4 5 4 6 4 4 3 3 3 3 3 4 4 5 5 5 5 5 5 6 6 6
16 16 14 15 16 6 12 9 14 15 15 14 16 8 6 14 11 18 15 21 19 14 19 18 17 17 17 17 19 18 17 15 20 17 18 19 18 17 15 15 15 15 17 14 15 15 16 15 15 16 16 16 14 14 12 12 11 10 12 10 11 10 8 8 8 8 7 7 7 7 6 5 5 5 5 5 4 2 5 5 3 4 4 3 3 3 4 4 5 5 5 5 5 4 6 6 4
13 15 17 16 15 13 6 6 13 8 9 10 4 9 13 9 15 20 20 18 22 23 19 19 19 18 17 17 18 18 16 17 18 18 19 19 17 17 16 16 15 16 16 16 16 16 18 16 15 17 16 15 15 14 13 12 11 11 12 12 10 9 10 10 9 10 9 8 7 6 6 6 6 4 4 5 4 4 4 4 4 4 3 3 3 4 4 4 4 4 5 5 5 5 6 5 4
9 15 16 18 19 16 9 9 8 10 12 7 13 16 17 17 10 13 16 16 19 22 19 16 15 14 15 16 15 16 17 18 19 21 21 21 21 21 18 16 17 17 18 17 17 15 14 14 16 18 16 17 16 15 13 12 12 12 12 12 10 11 10 10 10 11 9 8 7 6 6 6 6 5 4 6 5 5 5 5 5 4 3 3 4 4 4 5 4 5 5 5 5 4 4 4 4
15 14 16 19 13 16 12 4 9 12 12 8 16 20 18 19 14 11 18 18 13 17 17 12 13 12 14 15 16 16 15 21 20 21 20 20 18 20 20 19 19 18 17 16 16 15 14 14 15 16 17 17 17 14 12 11 12 10 10 11 12 11 10 9 10 10 9 9 9 6 7 7 6 5 5 7 5 6 4 5 4 4 3 4 4 4 4 4 4 5 5 5 4 4 5 4 4
22 16 17 16 11 14 11 6 2 8 8 8 11 21 15 16 12 13 15 20 16 14 15 15 15 15 12 14 15 15 15 18 20 20 21 22 22 22 21 20 20 19 19 16 17 14 16 15 15 15 14 15 15 15 12 13 13 11 11 11 11 11 11 11 11 10 10 10 10 8 8 7 5 3 7 6 6 7 5 6 4 4 4 4 5 3 4 4 4 4 4 4 4 5 4 4 3
14 14 13 14 9 7 11 8 13 8 6 8 7 11 12 14 14 14 16 20 18 15 12 11 13 13 14 15 14 14 14 15 21 21 20 21 21 20 20 18 19 17 15 14 14 16 14 14 16 17 17 17 16 15 13 13 12 11 13 13 13 12 12 10 12 12 10 10 7 7 8 7 7 3 6 6 7 7 7 6 6 6 5 5 4 4 3 4 3 4 4 4 4 4 5 4 3
13 13 13 15 15 13 11 9 11 10 6 5 8 10 9 11 12 15 17 10 12 15 15 13 15 15 14 16 17 16 12 16 19 20 18 18 18 18 16 15 14 14 15 16 16 15 15 16 15 16 15 15 16 15 13 14 11 11 13 14 13 11 11 9 10 12 10 10 9 7 8 8 7 6 9 8 8 7 6 7 7 6 6 6 5 5 4 3 4 5 4 3 4 5 4 4 3
Wind_Direction
308 315 315 283 219 243 238 208 258 187 228 250 264 174 176 214 137 175 166 134 56 273 149 159 284 61 16 65 88 71 53 49 18 16 81 129 146 124 108 113 116 116 118 126 128 128 128 127 126 127 127 128 125 123 122 124 121 119 121 118 114 115 114 115 117 116 116 112 110 109 102 97 99 91 93 93 89 88 94 99 103 112 115 115 112 114 118 110 107 108 108 104 100 94 90 88 79
307 311 306 275 234 228 226 198 255 243 222 230 266 313 207 194 261 103 141 133 158 92 29 309 70 54 33 128 98 90 58 62 58 82 93 117 121 131 110 118 119 119 120 128 135 133 130 130 128 131 131 130 129 126 124 126 124 124 122 121 117 117 115 114 119 118 117 117 109 101 104 104 97 90 91 98 94 91 89 92 96 113 119 121 121 121 116 117 116 112 107 106 105 99 90 83 71
307 316 308 300 271 201 272 250 249 248 262 255 213 236 91 238 219 148 90 55 65 135 165 175 168 193 154 125 57 55 88 76 94 98 100 135 140 124 123 119 117 120 129 133 134 136 133 134 132 132 134 133 130 128 129 126 127 128 125 121 121 120 120 121 119 118 115 109 111 107 106 107 103 98 91 92 96 98 98 99 94 94 109 119 121 120 118 119 117 117 118 110 101 98 87 71 61
297 283 271 312 320 307 262 249 248 259 251 262 175 249 159 231 334 119 113 56 168 221 15 129 354 76 3 75 98 84 82 72 80 108 127 156 127 133 127 125 123 128 127 133 134 132 134 136 131 133 137 137 133 132 130 131 130 129 126 124 122 120 124 124 120 120 118 115 113 114 114 109 108 103 94 89 87 98 112 110 105 109 108 113 116 116 118 115 117 119 117 114 104 92 82 64 43
290 273 253 289 310 298 332 298 275 248 251 268 235 202 249 234 66 329 67 254 72 276 149 98 164 66 56 55 54 76 79 85 70 103 145 130 135 129 123 126 128 132 133 131 128 127 132 135 131 133 137 140 136 133 134 132 131 130 128 125 122 121 121 124 125 124 121 120 121 121 118 114 113 103 98 94 89 84 86 102 124 119 113 108 103 96 104 112 110 115 110 111 110 94 76 52 34
280 268 254 240 282 346 278 260 264 266 278 338 232 351 249 283 161 228 124 241 79 311 90 243 133 174 76 55 48 63 12 78 89 55 102 131 136 128 127 133 132 135 134 127 122 126 136 135 133 135 138 140 139 136 134 132 130 129 129 126 123 124 124 123 125 123 119 126 121 116 114 117 113 106 100 97 98 95 94 97 98 117 121 116 120 115 112 105 100 97 109 107 103 94 73 39 1
284 318 282 238 246 231 266 270 270 271 285 105 215 204 241 154 337 281 196 183 196 196 188 59 73 93 108 108 77 53 39 108 129 147 131 128 126 131 134 135 137 122 106 110 122 128 135 136 136 137 139 142 139 136 135 132 131 128 127 127 127 124 124 124 124 121 122 120 115 115 119 120 113 109 106 103 103 105 108 118 118 116 125 125 121 125 124 121 118 111 103 92 74 69 48 5 351
235 263 341 303 299 256 240 254 263 264 24 230 49 322 296 46 127 211 266 288 136 224 147 256 192 100 76 81 99 36 58 52 93 112 123 128 133 137 138 131 126 121 112 115 115 124 133 137 138 140 140 140 139 136 134 132 130 128 127 128 125 124 122 124 121 120 121 122 121 121 121 120 118 116 111 109 108 110 120 121 125 128 127 129 130 134 134 132 125 120 97 90 32 339 342 345 334
247 224 178 271 267 285 287 264 262 257 291 287 238 108 330 20 5 310 234 204 357 295 224 73 44 75 161 91 91 102 83 92 109 121 127 133 138 132 123 124 126 113 105 109 115 127 136 138 138 140 140 141 138 138 134 130 129 130 128 127 125 121 123 123 122 125 129 128 126 125 125 124 124 119 120 119 115 115 118 129 124 129 130 134 135 131 134 132 124 123 137 125 170 328 318 326 331
276 245 245 247 250 255 259 257 256 238 234 262 277 263 231 181 226 227 287 307 178 146 85 76 93 127 122 94 98 110 118 121 124 128 131 135 122 121 131 127 114 101 111 114 123 132 135 139 135 135 137 139 139 135 131 129 130 130 130 127 125 124 122 119 121 117 117 113 111 110 109 121 131 130 126 124 124 124 128 139 138 129 132 134 132 131 134 137 138 155 169 173 185 240 306 312 312
281 247 251 261 231 244 252 257 261 277 255 221 192 254 273 207 233 235 236 211 342 305 303 113 146 111 107 94 87 121 121 129 138 132 131 125 129 134 127 124 122 123 121 126 129 131 135 138 134 132 136 135 131 127 127 128 128 127 128 128 126 123 122 123 123 123 121 114 116 120 124 122 129 135 137 139 132 135 139 135 148 134 141 140 140 144 138 149 169 178 187 206 222 227 236 269 294
270 256 206 231 250 240 238 247 260 262 269 251 235 201 222 231 209 261 279 313 240 203 156 128 90 108 94 96 112 123 132 129 125 130 133 128 128 122 121 120 122 123 121 120 124 133 136 135 137 139 132 129 130 130 130 129 127 126 128 127 126 125 124 125 123 120 118 117 120 123 132 137 138 141 146 140 158 146 140 143 140 159 146 156 142 147 163 163 174 191 197 229 253 260 257 262 264
243 231 244 242 233 234 249 261 260 264 265 255 232 232 267 257 238 227 252 237 233 305 39 20 60 83 98 108 120 137 131 125 127 132 132 123 117 121 119 118 120 125 125 128 130 131 137 140 140 145 140 131 130 130 130 129 131 130 126 127 127 123 123 123 123 122 120 120 128 132 136 145 151 153 153 156 151 157 149 142 154 159 166 162 167 163 171 169 187 196 219 227 235 253 269 270 267
235 233 244 248 231 248 242 240 251 254 253 261 274 245 225 238 231 248 234 253 213 207 31 96 114 90 90 114 145 135 126 126 131 137 125 121 117 118 118 119 132 130 127 124 127 133 143 139 145 143 144 144 135 131 132 132 134 132 132 132 127 126 125 125 125 127 129 129 129 138 144 149 153 158 161 155 167 157 162 151 156 168 169 178 180 176 178 184 184 214 226 240 239 245 254 257 260
241 234 244 248 245 225 226 242 233 246 258 254 228 267 260 228 246 226 243 259 248 98 116 208 29 238 157 150 146 149 145 139 143 133 125 131 125 115 124 138 125 113 122 126 132 143 141 146 150 148 155 149 143 140 140 140 138 139 136 133 132 132 131 133 133 136 138 138 136 139 149 152 156 158 159 165 162 171 166 157 164 167 193 195 205 203 189 198 201 211 232 244 253 253 253 253 255
234 242 246 247 243 247 228 224 233 247 246 246 258 276 288 258 236 253 219 235 282 122 305 283 61 72 99 64 142 139 140 145 142 133 134 123 120 127 133 141 106 119 120 123 132 147 139 155 148 157 158 152 151 148 144 144 143 140 139 137 139 140 140 140 143 144 148 147 149 153 155 157 159 163 164 164 175 175 167 175 171 190 202 215 220 221 213 213 219 228 238 245 252 251 248 249 249
233 237 239 236 241 233 234 243 221 224 242 249 250 261 273 277 265 248 272 276 257 227 70 102 123 112 99 116 127 136 142 145 146 147 140 118 129 132 155 119 112 108 124 129 136 140 158 158 152 160 162 155 152 150 148 144 145 143 142 143 146 147 148 147 149 155 160 164 163 167 165 162 163 159 169 171 176 182 174 208 176 189 207 217 218 225 224 225 229 231 237 241 245 244 244 246 252
240 224 229 239 233 234 232 234 232 239 247 225 216 244 257 265 265 226 232 248 225 272 269 109 103 99 106 122 131 140 143 148 148 152 120 126 146 147 156 130 125 130 141 138 144 146 156 161 163 151 161 157 151 149 152 146 148 150 149 149 151 154 154 153 156 169 178 175 179 175 183 188 163 153 185 169 169 184 189 197 187 194 198 212 217 221 224 223 227 230 234 240 239 245 251 260 257
233 236 226 232 230 232 235 251 236 242 236 267 250 209 242 258 263 230 222 228 234 232 252 158 122 113 116 128 135 135 146 142 147 148 139 146 152 166 155 136 133 143 141 139 149 166 154 172 162 154 159 155 155 150 150 149 158 159 156 162 158 164 166 163 173 179 182 173 185 183 191 237 165 159 174 163 183 173 181 189 191 197 203 208 215 222 225 228 228 230 234 238 240 250 259 250 261
227 245 234 231 230 230 232 241 258 258 263 244 246 257 249 247 243 243 240 237 226 248 273 237 143 135 138 137 139 145 145 151 152 150 152 153 158 166 159 151 143 148 150 146 154 177 173 171 158 156 161 154 160 160 148 156 170 165 164 161 162 174 173 181 182 188 186 188 182 185 194 200 86 134 169 179 152 159 159 180 194 204 208 215 219 225 231 236 237 241 249 253 260 253 252 247 237
211 229 231 232 231 239 234 233 237 246 249 259 253 217 235 237 242 231 229 228 240 237 244 250 165 164 144 145 148 151 148 150 167 171 165 161 153 178 163 153 153 150 152 147 154 193 184 151 154 152 144 157 165 159 158 165 170 168 173 151 168 176 184 197 186 194 195 201 183 129 120 96 132 130 87 102 132 144 148 180 192 211 211 215 217 233 226 228 222 236 233 239 246 249 237 243 255
227 227 230 237 245 242 237 242 247 240 244 256 248 255 245 246 246 243 240 229 215 199 231 252 186 148 138 147 152 146 152 156 166 183 181 152 163 165 164 157 141 153 153 161 171 188 175 146 158 136 146 162 156 172 164 168 161 179 164 171 170 179 198 192 177 203 181 159 91 116 111 148 154 120 117 111 105 103 149 193 201 221 219 230 192 223 245 276 181 225 333 321 263 291 277 261 230
225 230 231 227 235 245 238 235 241 245 242 242 246 217 229 230 241 239 236 241 236 239 264 321 83 116 124 150 148 146 154 168 168 185 189 148 167 164 164 156 152 162 164 164 172 176 159 149 161 137 153 160 172 179 167 161 174 175 166 168 177 197 180 154 199 158 131 133 122 140 148 156 87 81 98 106 348 85 28 4 2 354 329 350 358 265 282 281 21 38 247 351 313 275 264 237 212
236 231 229 231 227 234 240 247 244 242 246 250 240 240 252 234 237 249 237 239 253 265 251 156 133 139 156 156 161 157 163 174 173 186 189 155 175 161 163 154 168 154 174 153 165 160 151 170 160 150 164 168 169 169 166 171 178 167 169 172 194 181 151 142 190 151 142 150 161 153 144 67 71 20 33 42 5 51 36 3 335 357 325 336 9 321 297 294 202 280 9 259 276 299 283 311 218
225 237 233 232 228 232 232 231 241 254 260 249 243 224 233 235 244 247 239 241 229 228 236 226 145 156 161 150 154 162 163 172 176 178 201 155 170 149 155 144 173 173 147 159 156 160 166 177 156 171 164 171 161 165 166 176 170 157 161 180 223 124 155 156 176 151 151 138 163 180 135 106 86 145 82 86 258 41 108 167 340 355 326 344 333 281 305 317 260 210 99 259 278 266 255 278 258
232 232 231 235 234 229 230 227 225 240 244 251 241 233 235 225 227 247 244 236 228 227 224 231 220 187 149 150 159 159 167 176 163 183 202 149 137 143 152 148 174 174 141 150 161 144 160 193 160 175 163 176 162 167 168 172 153 156 167 194 207 139 178 150 161 141 157 162 143 172 87 96 115 33 62 90 92 114 138 128 136 120 346 350 298 270 220 234 245 173 165 194 204 1 286 284 69
229 236 230 234 235 235 229 231 222 224 233 242 247 238 233 231 218 230 238 263 238 225 221 234 245 205 143 133 157 163 166 166 169 174 189 138 141 158 158 147 173 182 144 152 169 146 163 191 166 172 148 173 153 176 165 159 153 161 174 219 115 169 154 145 140 155 184 154 139 130 143 116 110 113 122 90 63 3 69 91 32 60 112 134 279 316 308 308 312 233 186 224 215 185 190 243 203
237 241 235 230 238 230 235 238 228 220 224 231 242 244 236 235 228 232 234 222 238 239 221 225 231 213 166 151 156 161 159 161 171 172 182 142 163 160 154 162 179 179 152 154 166 140 164 190 180 147 141 158 156 179 162 145 152 175 169 214 135 171 146 132 135 211 147 141 121 96 101 105 121 125 146 129 158 168 127 131 127 221 178 188 165 265 329 325 300 274 246 229 54 74 333 28 21
240 233 244 237 225 234 231 233 240 229 229 219 233 253 239 225 229 222 220 255 229 209 247 281 96 162 176 138 152 154 162 166 170 174 186 160 159 159 155 170 183 170 155 162 145 150 171 195 174 144 143 158 161 183 154 146 162 164 195 181 143 141 166 162 187 165 145 116 100 132 94 83 112 131 136 132 118 141 141 122 144 166 181 304 46 69 331 285 267 264 281 166 194 148 129 89 17
241 242 236 241 244 223 224 237 224 235 237 237 215 239 248 233 240 220 212 236 242 199 201 239 176 182 153 138 144 154 160 169 170 175 183 175 161 159 161 176 176 159 164 179 149 160 166 190 165 143 141 152 178 168 141 150 159 167 191 160 149 143 166 184 174 140 150 122 121 130 91 99 93 98 107 109 115 141 133 120 141 157 169 195 239 53 258 246 236 217 179 93 322 134 131 153 180
231 231 234 233 233 243 214 222 227 224 236 240 221 230 232 235 240 225 205 242 235 215 187 206 211 183 163 174 156 162 172 173 168 169 173 165 156 161 172 174 171 164 166 182 150 152 163 164 155 144 139 147 178 151 157 149 155 177 178 180 134 152 190 169 117 138 147 150 126 97 105 125 126 105 104 108 115 129 131 139 161 173 178 213 138 162 231 239 280 2 36 11 311 283 91 238 91
223 226 225 228 234 231 230 223 225 216 224 238 220 231 232 233 234 213 185 225 239 232 187 186 208 174 172 185 165 168 165 167 164 163 161 162 159 163 177 176 175 168 163 180 141 150 166 165 142 143 147 148 179 156 162 155 168 179 186 149 127 180 168 165 140 181 171 125 97 104 117 129 110 98 103 97 106 110 101 126 87 118 87 218 194 247 244 270 26 346 88 17 317 338 221 105 81
224 220 218 225 223 235 235 233 235 223 219 232 235 234 228 245 241 220 177 198 228 237 204 179 187 193 187 206 202 168 161 164 161 161 161 158 156 166 179 184 166 162 158 161 144 153 169 160 150 149 162 157 173 159 168 154 170 179 190 127 144 186 172 176 162 149 105 100 100 94 99 117 97 81 102 98 102 102 106 117 227 198 183 210 246 243 351 18 39 350 22 50 6 338 319 128 95
217 214 222 220 226 217 225 223 228 224 207 238 236 235 228 235 239 225 227 211 212 225 208 194 184 199 201 205 205 166 162 161 163 164 158 157 163 165 184 171 155 153 152 158 155 156 169 158 159 152 165 164 166 165 172 153 173 174 161 145 143 178 189 192 130 130 104 82 93 103 112 98 106 100 119 109 89 69 68 216 217 208 223 182 235 234 165 164 48 32 6 74 55 300 320 37 107
207 210 214 219 222 222 222 219 214 212 202 218 235 235 219 232 250 232 216 221 242 227 206 206 203 196 203 207 194 153 160 161 159 165 157 162 163 162 168 151 154 154 162 158 152 159 171 159 162 157 169 166 168 163 159 158 167 162 158 146 156 176 191 106 89 106 99 109 112 113 96 85 108 115 77 116 96 89 276 259 225 206 153 140 53 306 200 160 187 127 192 130 193 25 316 54 96
217 213 219 218 228 221 219 224 219 222 238 219 221 233 224 226 238 242 238 198 219 235 207 196 206 200 195 209 191 161 160 151 146 151 157 157 165 151 149 157 157 158 171 159 160 168 180 160 175 164 171 166 158 153 155 164 162 171 167 161 167 182 154 133 132 112 116 123 112 103 107 105 131 115 99 27 66 58 272 265 316 34 61 20 13 331 1 18 10 20 56 337 282 178 19 113 90
230 226 227 228 229 236 227 242 224 210 239 236 224 228 234 234 238 236 231 243 234 229 218 187 204 197 189 209 194 152 152 156 159 157 159 163 163 142 151 161 164 160 174 164 164 180 177 172 173 170 172 161 157 159 167 174 172 175 167 177 169 175 147 152 124 133 122 109 108 116 112 131 137 139 150 161 164 189 223 233 48 52 325 93 298 332 346 4 324 297 127 76 313 94 35 73 111
238 234 230 228 222 228 225 229 222 225 231 212 217 225 225 230 241 240 224 221 234 248 226 183 197 200 195 216 170 158 146 139 152 152 160 157 158 146 153 160 166 166 174 167 174 183 181 178 170 175 168 164 160 165 166 181 178 177 164 172 174 154 162 147 139 123 112 111 118 131 129 149 147 128 111 123 142 139 140 104 83 52 296 128 222 228 211 227 223 271 113 179 295 129 83 79 121
233 238 233 231 228 228 234 232 226 216 228 232 215 216 221 218 220 241 244 218 212 221 214 196 206 201 203 213 172 162 142 151 161 161 158 157 152 150 160 163 173 167 170 173 175 186 181 181 178 173 164 165 166 166 169 177 168 161 164 172 176 156 152 129 110 110 102 92 85 112 132 153 127 86 89 88 106 100 89 87 82 124 316 11 249 222 191 230 10 207 183 143 107 1 80 33 134
233 230 237 233 226 221 213 221 225 232 225 229 233 235 233 236 216 214 236 245 217 198 198 206 209 209 207 210 181 167 152 156 162 158 161 161 159 160 166 167 169 173 171 176 186 188 182 183 176 165 164 167 169 166 168 161 163 167 169 172 161 118 109 90 93 97 97 109 98 70 57 60 73 98 146 168 103 108 149 145 167 171 191 34 300 295 103 18 155 291 314 87 159 165 205 82 29
231 233 230 234 233 224 233 213 216 225 230 232 233 235 238 240 228 215 215 235 251 207 197 205 206 210 206 209 203 172 160 158 159 160 161 164 165 171 169 159 165 176 175 179 187 191 183 178 174 167 166 167 165 167 169 148 163 168 162 111 85 87 96 110 124 118 133 131 124 125 101 98 112 117 175 114 130 113 75 28 68 95 45 1 316 1 68 232 246 117 355 40 32 309 106 80 64
224 228 232 232 240 240 217 230 230 208 220 226 228 232 231 228 231 224 202 218 243 222 199 207 205 201 207 208 209 185 161 166 162 166 171 168 174 168 163 162 167 176 179 186 184 191 184 173 175 169 168 168 164 165 163 156 169 164 160 139 135 137 146 150 160 155 155 155 150 126 133 153 129 139 171 78 55 53 90 95 331 98 135 206 211 115 127 316 44 103 69 63 61 26 108 112 103
225 217 226 238 238 240 243 222 220 232 219 215 222 232 233 233 230 232 223 201 229 236 196 210 208 202 203 210 209 187 157 164 163 163 163 163 174 172 166 168 171 176 175 178 185 185 191 184 171 168 167 167 168 162 164 158 169 172 166 158 153 153 152 166 157 152 151 150 127 137 115 105 129 127 106 90 92 86 86 59 171 126 121 81 25 48 66 63 37 20 11 46 43 18 49 104 118
228 221 219 225 235 238 235 247 227 228 236 220 220 218 233 229 222 223 221 214 222 229 229 200 199 203 202 206 206 189 159 164 163 163 171 171 171 175 175 171 171 172 172 178 172 181 197 181 172 169 166 168 167 162 165 162 171 167 171 167 157 158 154 160 151 147 150 136 136 123 114 147 153 133 91 151 152 118 120 149 63 27 134 145 147 92 59 53 73 41 33 47 39 29 9 73 92
230 224 225 220 223 233 242 247 244 237 232 229 220 223 228 224 225 207 207 224 218 216 224 227 196 198 197 198 199 210 177 166 162 167 172 172 173 173 175 175 174 168 171 185 174 182 183 187 172 168 166 167 163 163 176 171 175 171 172 166 160 162 156 151 140 136 135 134 134 129 157 167 142 69 93 310 86 116 100 90 93 91 49 88 82 81 68 59 50 58 57 46 47 35 21 26 55
226 236 227 228 220 233 238 235 231 237 244 225 222 220 229 222 212 218 208 217 228 211 218 222 217 208 188 187 193 200 196 164 172 171 170 172 173 172 173 173 169 174 181 183 181 178 182 191 177 175 173 170 166 170 179 175 175 172 171 171 168 155 145 140 137 139 130 132 139 155 181 145 107 101 190 155 188 112 112 143 116 66 39 58 72 86 86 73 69 67 61 63 63 62 42 45 47
223 232 237 223 230 218 227 251 247 233 240 234 228 225 221 229 211 214 227 241 226 216 211 215 220 211 202 179 184 192 195 157 166 171 171 170 172 172 168 171 175 174 178 182 182 174 177 192 178 180 178 172 170 172 182 175 175 171 173 175 163 148 149 145 141 140 144 152 160 158 149 119 123 126 40 55 25 128 68 61 91 107 100 103 103 106 99 96 84 74 66 61 67 71 66 64 58
225 220 223 219 228 213 207 227 237 240 233 227 233 230 213 230 202 198 213 238 249 232 211 201 212 212 202 188 189 191 188 165 159 164 168 169 168 174 169 169 174 177 180 183 183 164 175 191 179 180 177 177 173 174 184 175 175 172 175 173 159 154 156 155 152 152 160 165 154 147 140 124 116 108 117 4 38 66 87 60 62 85 77 80 86 83 96 106 99 92 83 81 77 72 71 61 64
213 220 217 223 220 199 211 209 219 230 232 218 225 222 226 227 226 214 202 217 232 242 225 208 203 206 198 193 195 185 177 164 157 157 164 167 168 172 172 172 174 178 183 185 179 167 176 187 181 180 180 180 174 176 184 178 175 179 171 163 161 155 154 159 159 158 166 158 147 144 151 142 123 139 147 131 99 127 115 118 88 68 67 60 64 68 79 86 89 79 76 73 68 66 60 66 63
209 212 219 217 207 195 209 204 222 226 234 231 221 210 230 236 220 223 227 223 220 228 221 204 198 198 197 193 193 181 177 175 156 157 160 162 169 173 174 171 177 181 183 179 175 170 177 188 181 183 181 181 180 180 181 178 181 177 159 168 162 160 156 160 160 164 166 152 146 148 151 141 142 148 135 135 150 204 104 116 95 94 90 91 97 106 101 102 97 93 87 83 78 75 72 68 62
210 214 218 221 223 203 204 204 204 211 213 214 216 214 209 214 216 225 206 231 229 211 227 204 185 187 190 190 194 186 180 170 152 159 155 164 172 174 172 171 176 180 181 177 173 170 177 190 183 183 179 182 184 180 182 182 182 165 160 171 159 161 160 156 159 160 159 152 153 148 142 138 153 143 159 157 155 198 127 116 99 106 100 92 94 86 82 73 74 84 83 82 77 68 72 65 60
209 212 223 230 216 179 223 212 213 207 217 214 216 241 193 226 229 252 231 205 246 237 219 205 176 188 186 183 190 184 184 161 154 156 164 167 169 169 169 172 174 179 180 178 176 173 178 187 186 185 182 181 181 181 183 182 173 159 167 162 163 158 156 153 152 152 150 143 147 150 146 158 143 150 160 143 161 126 104 114 125 116 116 120 115 112 99 85 86 91 91 92 90 96 97 89 83
193 212 214 217 201 197 200 227 239 242 232 235 238 222 235 228 220 233 234 196 213 240 244 198 178 188 181 182 186 179 164 139 145 159 166 166 167 170 173 175 171 177 181 183 184 181 181 177 179 185 185 180 181 182 181 178 163 163 165 157 160 154 159 158 154 149 144 147 150 152 158 148 136 148 138 128 112 123 116 125 137 127 129 135 116 96 100 109 100 94 97 88 80 71 68 79 83
207 212 213 216 218 226 216 214 189 218 217 219 221 220 216 223 232 200 224 224 200 221 238 197 165 181 181 177 180 171 169 149 154 162 162 166 167 170 173 177 175 181 183 180 184 186 181 180 182 185 181 179 181 181 178 167 163 165 160 164 157 156 158 155 151 150 148 148 149 159 144 131 135 140 131 124 131 122 131 147 118 138 130 114 121 122 113 108 106 95 93 90 97 99 92 79 76
245 219 200 209 193 219 221 251 212 202 213 212 209 224 229 212 226 208 213 232 225 210 217 176 173 194 184 164 161 161 168 153 165 161 163 165 171 171 174 177 177 179 182 181 184 184 184 182 184 186 184 179 178 176 173 162 164 165 166 164 159 158 157 153 150 148 145 150 155 154 135 134 134 146 138 134 138 134 147 125 141 130 136 130 112 111 117 111 107 98 92 105 108 95 93 94 93
237 241 215 214 229 219 217 216 270 229 220 213 222 218 226 224 229 210 198 216 223 218 218 173 180 196 175 159 162 174 182 171 157 155 161 170 173 174 174 176 174 177 179 182 183 183 185 183 180 185 183 176 175 175 164 164 167 162 163 163 159 161 161 155 152 146 151 153 164 146 135 134 140 156 133 142 146 150 146 142 144 141 136 127 121 126 113 109 110 116 121 109 105 113 114 104 93
212 227 221 201 239 233 239 201 224 217 232 223 223 221 220 218 221 226 219 211 205 203 228 164 176 187 158 155 165 186 185 171 156 159 163 167 170 170 172 176 179 173 174 179 181 184 183 186 184 185 181 175 174 175 161 164 166 163 159 162 160 162 160 154 150 148 153 154 140 130 137 135 138 169 128 144 160 151 156 150 149 152 140 131 133 120 119 120 122 125 115 116 128 116 106 99 111
218 214 224 215 210 212 212 227 209 217 224 243 232 238 227 215 208 217 225 201 173 201 228 184 187 196 168 168 176 185 178 154 150 153 159 161 163 167 167 173 180 171 174 180 183 184 183 189 188 185 181 174 171 174 165 164 165 156 159 157 154 152 153 152 148 151 150 140 139 141 137 145 162 160 149 168 160 156 156 155 152 151 140 139 136 132 130 135 122 108 116 131 118 115 116 133 132